Regional Weather Roundup
Issued by NWS Raleigh/Durham, NC

Home | Current Version | Previous Version | Text Only | Print | Product List | Glossary On
Versions: 1 2 3 4 5 6 7 8 9 10 11 12 13 14 15 16 17 18 19 20 21 22 23 24 25 26 27 28 29 30 31 32 33 34 35 36 37 38 39 40 41 42 43 44 45 46 47 48 49 50
000
ASUS42 KRAH 280610
RWRRAH
NORTH CAROLINA WEATHER ROUNDUP
NATIONAL WEATHER SERVICE RALEIGH NC
100 AM EST TUE FEB 28 2017

NOTE: "FAIR" INDICATES FEW OR NO CLOUDS BELOW 12,000 FEET WITH NO
SIGNIFICANT WEATHER AND/OR OBSTRUCTIONS TO VISIBILITY.

NCZ001-053-055-056-065-067-280700-
WESTERN NORTH CAROLINA

CITY           SKY/WX    TMP DP  RH WIND       PRES   REMARKS
ASHEVILLE      CLEAR     45  33  63 CALM      30.32S
JEFFERSON      CLEAR     41  29  62 CALM      30.32S
MORGANTON      CLOUDY    49  34  56 CALM      30.38S
HICKORY        CLOUDY    49  32  52 NW5       30.33R
RUTHERFORDTON  NOT AVBL
MOUNT AIRY     CLOUDY    49  37  63 CALM      30.35S
BOONE          CLEAR     35  29  76 CALM      30.34R
$$

NCZ021-022-025-041-071-084-088-280700-
CENTRAL NORTH CAROLINA

CITY           SKY/WX    TMP DP  RH WIND       PRES   REMARKS
CHARLOTTE      CLOUDY    56  34  43 SE6       30.32R
GREENSBORO     CLOUDY    55  36  48 SE6       30.32R
WINSTON-SALEM  CLOUDY    54  32  43 CALM      30.33S
RALEIGH-DURHAM CLOUDY    59  46  62 S7        30.34S
FORT BRAGG     CLOUDY    56  47  72 CALM      30.33S
FAYETTEVILLE     N/A    N/A N/A N/A MISG        N/A
BURLINGTON     CLOUDY    52  37  56 CALM      30.32S
LAURINBURG     CLOUDY    55  49  80 NE5       30.34S
$$

NCZ011-015-027-028-043-044-047-080-103-280700-
NORTHEASTERN NORTH CAROLINA

CITY           SKY/WX    TMP DP  RH WIND       PRES   REMARKS
ROCKY MT-WILSO CLOUDY    52  47  83 CALM      30.36R
GREENVILLE     CLOUDY    55  48  76 CALM      30.35F
WASHINGTON     CLOUDY    53  49  83 CALM      30.36F
ELIZABETH CITY CLOUDY    55  51  86 NE3       30.36F
MANTEO         CLOUDY    60  55  82 S7        30.36F
CAPE HATTERAS  CLOUDY    69  54  58 S12       30.35F
$$

NCZ078-087-090-091-093-098-101-280700-
SOUTHEASTERN NORTH CAROLINA

CITY           SKY/WX    TMP DP  RH WIND       PRES   REMARKS
LUMBERTON      CLOUDY    56  51  84 NE3       30.32F
GOLDSBORO      CLOUDY    54  51  91 CALM      30.33F
KENANSVILLE    CLOUDY    52  48  87 CALM      30.35F
NEW BERN       CLOUDY    52  50  93 E3        30.37S
CHERRY POINT   PTCLDY    56  52  86 N5        30.36S
BEAUFORT       CLOUDY    61  56  83 NW3       30.34R
JACKSONVILLE   CLOUDY    55  52  89 E3        30.33F
WILMINGTON     CLOUDY    64  56  75 SE5       30.31F
$$




USA.gov is the U.S. government's official web portal to all federal, state and local government web resources and services.